Red Oak, IA

8:21 PM CDT on September 22, 2017 (GMT -0500)
Red Oak Municipal

Weather History for KRDK - May, 2014

Change the Weather History Date:

Monday, May 12, 2014

  Actual Average Record
Temperature  
Mean Temperature 58 °F -  
Max Temperature 69 °F 74 °F 97 °F (1956)
Min Temperature 48 °F 47 °F 30 °F (2013)
Degree Days  
Heating Degree Days 6    
Growing Degree Days 8 (Base 50)    
Moisture  
Dew Point 55 °F    
Average Humidity 91    
Maximum Humidity 100    
Minimum Humidity 82    
Precipitation  
Precipitation 0.03 in - - ()
Sea Level Pressure  
Sea Level Pressure 29.80 in    
Wind  
Wind Speed 11 mph (NW)    
Max Wind Speed 25 mph    
Max Gust Speed 32 mph    
Visibility 8 miles    
Events Rain    
Averages and records for this station are not official NWS values.
T = Trace of Precipitation, MM = Missing Value Source: NWS Daily Summary

Daily Weather History Graph

Daily Weather History Graph

Search for Another Location

Airport or City:

Trip Planner

Search our weather history database for the weather conditions in past years. The results will help you decide how hot, cold, wet, or windy it might be!

Date:

Astronomy

May. 12, 2014 Rise Set
Actual Time 6:06 AM CDT 8:29 PM CDT
Civil Twilight 5:35 AM CDT 9:00 PM CDT
Nautical Twilight 4:56 AM CDT 9:38 PM CDT
Astronomical Twilight 4:14 AM CDT 10:21 PM CDT
Moon 6:27 PM CDT (5/12) 4:47 AM CDT (5/12)
Length of Visible Light 15h 25m
Length of Day
14h 23m
Waxing Gibbous, 95% of the Moon is Illuminated
May 12
Waxing Gibbous
May 14
Full
May 21
Last Quarter
May 28
New
Jun 5
First Quarter

Hourly Weather History & Observations

Time (CDT) Temp. Dew Point Humidity Pressure Visibility Wind Dir Wind Speed Gust Speed Precip Events Conditions
12:15 AM 62.6 °F 62.6 °F 100% 29.68 in 10.0 mi NE 6.9 mph - N/A   Mostly Cloudy
12:35 AM 62.6 °F 62.6 °F 100% 29.70 in 10.0 mi NE 8.1 mph - N/A   Overcast
12:55 AM 64.4 °F 62.6 °F 94% 29.69 in 10.0 mi ENE 10.4 mph - N/A   Overcast
1:15 AM 64.4 °F 62.6 °F 94% 29.70 in 10.0 mi NE 8.1 mph 15.0 mph N/A   Overcast
1:35 AM 64.4 °F 62.6 °F 94% 29.69 in 10.0 mi NNE 9.2 mph - N/A   Overcast
1:55 AM 64.4 °F 62.6 °F 94% 29.70 in 10.0 mi NE 5.8 mph - N/A   Overcast
2:15 AM 64.4 °F 62.6 °F 94% 29.69 in 10.0 mi NE 10.4 mph - N/A   Overcast
2:35 AM 64.4 °F 60.8 °F 88% 29.65 in 10.0 mi NE 8.1 mph - N/A   Overcast
2:55 AM 64.4 °F 62.6 °F 94% 29.66 in 10.0 mi ENE 6.9 mph - N/A   Overcast
3:15 AM 64.4 °F 62.6 °F 94% 29.66 in 10.0 mi ENE 8.1 mph - N/A   Overcast
3:35 AM 64.4 °F 62.6 °F 94% 29.66 in 10.0 mi East 9.2 mph - N/A   Overcast
3:55 AM 64.4 °F 62.6 °F 94% 29.66 in 10.0 mi East 13.8 mph - N/A   Overcast
4:15 AM 64.4 °F 62.6 °F 94% 29.66 in 10.0 mi East 11.5 mph 18.4 mph N/A   Overcast
4:35 AM 64.4 °F 62.6 °F 94% 29.67 in 10.0 mi East 10.4 mph - N/A   Overcast
4:55 AM 64.4 °F 62.6 °F 94% 29.68 in 10.0 mi Variable 3.5 mph - N/A   Overcast
5:35 AM 64.4 °F 62.6 °F 94% 29.67 in 10.0 mi SSE 5.8 mph 13.8 mph N/A   Overcast
5:55 AM 66.2 °F 64.4 °F 94% 29.64 in 8.0 mi SSE 13.8 mph - 0.02 in Rain Light Rain
6:15 AM 68.0 °F 66.2 °F 94% 29.56 in 10.0 mi SE 25.3 mph 32.2 mph N/A   Overcast
6:35 AM 69.8 °F 66.2 °F 88% 29.65 in 10.0 mi WSW 23.0 mph 28.8 mph N/A   Mostly Cloudy
6:55 AM 64.4 °F 62.6 °F 94% 29.68 in 10.0 mi SW 9.2 mph 20.7 mph 0.01 in   Overcast
7:15 AM 64.4 °F 62.6 °F 94% 29.69 in 9.0 mi WSW 8.1 mph - N/A   Overcast
7:35 AM 64.4 °F 62.6 °F 94% 29.71 in 10.0 mi SW 11.5 mph - N/A   Overcast
7:50 AM 64.4 °F 62.6 °F 94% 29.72 in 5.0 mi SW 8.1 mph - N/A   Overcast
8:15 AM 62.6 °F 60.8 °F 94% 29.71 in 5.0 mi West 8.1 mph - N/A   Overcast
8:35 AM 62.6 °F 60.8 °F 94% 29.71 in 4.0 mi West 6.9 mph - N/A   Overcast
8:55 AM 60.8 °F 59.0 °F 94% 29.74 in 5.0 mi WSW 9.2 mph - N/A   Overcast
9:15 AM 59.0 °F 59.0 °F 100% 29.74 in 4.0 mi West 10.4 mph - N/A   Overcast
9:35 AM 60.8 °F 59.0 °F 94% 29.74 in 4.0 mi West 8.1 mph - N/A   Overcast
9:55 AM 60.8 °F 59.0 °F 94% 29.75 in 4.0 mi WSW 4.6 mph - N/A   Overcast
10:15 AM 60.8 °F 59.0 °F 94% 29.75 in 5.0 mi WSW 5.8 mph - N/A   Overcast
10:35 AM 60.8 °F 59.0 °F 94% 29.75 in 3.0 mi WNW 8.1 mph - N/A   Overcast
10:55 AM 60.8 °F 59.0 °F 94% 29.75 in 6.0 mi Variable 5.8 mph - N/A   Overcast
11:15 AM 60.8 °F 59.0 °F 94% 29.76 in 6.0 mi West 5.8 mph - N/A   Overcast
11:35 AM 60.8 °F 59.0 °F 94% 29.76 in 10.0 mi WNW 5.8 mph - N/A   Overcast
11:55 AM 60.8 °F 59.0 °F 94% 29.76 in 9.0 mi NW 9.2 mph - N/A   Overcast
12:15 PM 59.0 °F 57.2 °F 94% 29.77 in 8.0 mi WNW 10.4 mph - N/A   Overcast
12:35 PM 59.0 °F 57.2 °F 94% 29.77 in 6.0 mi NW 9.2 mph - N/A   Overcast
12:55 PM 57.2 °F 57.2 °F 100% 29.77 in 1.5 mi WNW 11.5 mph - N/A   Overcast
1:15 PM 57.2 °F 55.4 °F 94% 29.78 in 1.0 mi WNW 12.7 mph - N/A   Overcast
1:35 PM 57.2 °F 55.4 °F 94% 29.78 in 1.2 mi WNW 11.5 mph - N/A   Overcast
1:55 PM 55.4 °F 53.6 °F 94% 29.79 in 1.5 mi WNW 15.0 mph 21.9 mph N/A   Overcast
2:35 PM 55.4 °F 53.6 °F 94% 29.81 in 3.0 mi WNW 15.0 mph 21.9 mph N/A   Mostly Cloudy
2:55 PM 55.4 °F 51.8 °F 88% 29.82 in 10.0 mi NW 19.6 mph 26.5 mph N/A   Mostly Cloudy
3:15 PM 53.6 °F 51.8 °F 94% 29.83 in 5.0 mi NW 15.0 mph 24.2 mph N/A   Overcast
3:35 PM 53.6 °F 50.0 °F 88% 29.84 in 5.0 mi NW 18.4 mph 26.5 mph N/A   Overcast
3:55 PM 53.6 °F 50.0 °F 88% 29.85 in - NW 17.3 mph 24.2 mph N/A   Overcast
4:10 PM 51.8 °F 50.0 °F 94% 29.86 in 9.0 mi NW 21.9 mph 28.8 mph N/A   Overcast
4:35 PM 51.8 °F 48.2 °F 88% 29.88 in 10.0 mi WNW 18.4 mph 24.2 mph N/A   Overcast
4:55 PM 51.8 °F 48.2 °F 88% 29.88 in 10.0 mi NW 16.1 mph 24.2 mph N/A   Overcast
5:15 PM 51.8 °F 46.4 °F 82% 29.88 in 10.0 mi NW 18.4 mph 29.9 mph N/A   Overcast
5:35 PM 51.8 °F 46.4 °F 82% 29.89 in 10.0 mi NW 18.4 mph 27.6 mph N/A   Overcast
5:55 PM 51.8 °F 48.2 °F 88% 29.90 in 10.0 mi NW 15.0 mph 25.3 mph N/A   Overcast
6:15 PM 51.8 °F 46.4 °F 82% 29.91 in 10.0 mi NW 20.7 mph 28.8 mph N/A   Overcast
6:35 PM 50.0 °F 46.4 °F 87% 29.92 in 10.0 mi NW 17.3 mph 27.6 mph N/A   Overcast
6:55 PM 50.0 °F 46.4 °F 87% 29.92 in 10.0 mi NW 15.0 mph 24.2 mph N/A   Overcast
7:15 PM 50.0 °F 46.4 °F 87% 29.93 in 10.0 mi NW 17.3 mph 24.2 mph N/A   Overcast
7:35 PM 48.2 °F 44.6 °F 87% 29.94 in 10.0 mi NW 21.9 mph - N/A   Overcast
7:55 PM 48.2 °F 44.6 °F 87% 29.94 in 10.0 mi NW 19.6 mph 28.8 mph N/A   Overcast
8:15 PM 48.2 °F 44.6 °F 87% 29.93 in 10.0 mi NNW 21.9 mph - N/A   Overcast
8:35 PM 48.2 °F 44.6 °F 87% 29.94 in 10.0 mi NW 19.6 mph 26.5 mph N/A   Overcast
8:55 PM 48.2 °F 44.6 °F 87% 29.95 in 10.0 mi NW 17.3 mph 26.5 mph N/A   Overcast
9:15 PM 48.2 °F 44.6 °F 87% 29.97 in 10.0 mi NNW 15.0 mph 24.2 mph N/A   Overcast
9:35 PM 48.2 °F 44.6 °F 87% 29.99 in 10.0 mi NNW 15.0 mph 21.9 mph N/A   Overcast
9:55 PM 48.2 °F 44.6 °F 87% 30.01 in 10.0 mi NNW 16.1 mph 27.6 mph N/A   Overcast
10:15 PM 48.2 °F 42.8 °F 82% 30.01 in 10.0 mi NW 16.1 mph 24.2 mph N/A   Overcast
10:35 PM 48.2 °F 44.6 °F 87% 30.02 in 10.0 mi NNW 13.8 mph 21.9 mph N/A   Overcast
10:55 PM 48.2 °F 42.8 °F 82% 30.02 in 10.0 mi NNW 13.8 mph 23.0 mph N/A   Overcast
11:15 PM 48.2 °F 44.6 °F 87% 30.02 in 10.0 mi NNW 12.7 mph - N/A   Overcast
11:35 PM 48.2 °F 42.8 °F 82% 30.02 in 10.0 mi NNW 11.5 mph 18.4 mph N/A   Overcast
11:55 PM 48.2 °F 42.8 °F 82% 30.02 in 10.0 mi NNW 13.8 mph - N/A   Overcast